Springfield, IL

3:34 PM CST on December 10, 2019 (GMT -0600)
Capital

Weather History for KSPI - October, 2019

Change the Weather History Date:

Friday, October 11, 2019

  Actual Average Record
Temperature  
Mean Temperature 51 °F 57 °F  
Max Temperature 68 °F 68 °F 90 °F (1962)
Min Temperature 33 °F 45 °F 28 °F (1987)
Degree Days  
Heating Degree Days 14 9  
Month to date heating degree days 59 86  
Since 1 July heating degree days 60 167  
Cooling Degree Days 0 1  
Month to date cooling degree days 32 13  
Year to date cooling degree days 1309 1112  
Moisture  
Dew Point 43 °F    
Average Humidity 78    
Maximum Humidity 93    
Minimum Humidity 62    
Precipitation  
Precipitation 0.18 in 0.10 in 1.38 in (1931)
Month to date precipitation 0.68 1.08  
Year to date precipitation 41.23 29.63  
Snow  
Snow 0.00 in 0.00 in T in (1909)
Month to date snowfall 0.0 0.0  
Since 1 July snowfall 0.0 0.0  
Since 1 September snowfall 0.0 0.0  
Snow Depth 0.00 in    
Sea Level Pressure  
Sea Level Pressure 30.01 in    
Wind  
Wind Speed 10 mph (West)    
Max Wind Speed 20 mph    
Max Gust Speed 29 mph    
Visibility 8 miles    
Events Rain    
T = Trace of Precipitation, MM = Missing Value Source: NWS Daily Summary

Daily Weather History Graph

Daily Weather History Graph

Search for Another Location

Airport or City:

Astronomy

Oct. 11, 2019 Rise Set
Actual Time 7:04 AM CDT 6:25 PM CDT
Civil Twilight 6:37 AM CDT 6:52 PM CDT
Nautical Twilight 6:06 AM CDT 7:23 PM CDT
Astronomical Twilight 5:34 AM CDT 7:55 PM CDT
Moon 5:54 PM CDT (10/11) 4:45 AM CDT (10/11)
Length of Visible Light 12h 15m
Length of Day
11h 20m
Waxing Gibbous, 96% of the Moon is Illuminated
Oct 11
Waxing Gibbous
Oct 13
Full
Oct 21
Last Quarter
Oct 27
New
Nov 4
First Quarter

Hourly Weather History & Observations

Time (CDT) Temp. Windchill Dew Point Humidity Pressure Visibility Wind Dir Wind Speed Gust Speed Precip Events Conditions
12:52 AM 66.9 °F - 64.0 °F 90% 29.88 in 7.0 mi South 4.6 mph - 0.00 in Rain Light Rain
1:52 AM 66.9 °F - 64.0 °F 90% 29.84 in 8.0 mi SSE 5.8 mph - 0.08 in Rain Light Rain
2:52 AM 66.9 °F - 64.0 °F 90% 29.86 in 10.0 mi South 6.9 mph - 0.00 in Rain Light Rain
3:52 AM 66.9 °F - 64.0 °F 90% 29.83 in 10.0 mi South 9.2 mph - 0.00 in   Mostly Cloudy
4:52 AM 66.9 °F - 64.9 °F 93% 29.84 in 9.0 mi South 10.4 mph - N/A   Overcast
5:21 AM 62.1 °F - 59.0 °F 90% 29.86 in 7.0 mi WNW 12.7 mph 27.6 mph 0.01 in Rain Light Rain
5:28 AM 61.0 °F - 57.9 °F 90% 29.87 in 9.0 mi West 12.7 mph 23.0 mph 0.01 in Rain Light Rain
5:38 AM 60.1 °F - 57.0 °F 90% 29.88 in 9.0 mi West 16.1 mph 23.0 mph 0.01 in Rain Light Rain
5:52 AM 57.0 °F - 54.0 °F 89% 29.89 in 10.0 mi West 15.0 mph 25.3 mph 0.01 in Rain Light Rain
6:48 AM 51.8 °F - 48.2 °F 88% 29.93 in 10.0 mi West 12.7 mph 24.2 mph 0.04 in Rain Light Rain
6:52 AM 52.0 °F - 48.9 °F 89% 29.93 in 9.0 mi West 11.5 mph 23.0 mph 0.05 in Rain Light Rain
7:11 AM 50.0 °F - 46.9 °F 89% 29.95 in 10.0 mi West 16.1 mph 25.3 mph 0.01 in Rain Light Rain
7:52 AM 48.0 °F - 44.1 °F 86% 29.96 in 10.0 mi WNW 10.4 mph 23.0 mph 0.02 in Rain Light Rain
8:27 AM 48.0 °F - 44.1 °F 86% 29.98 in 10.0 mi West 13.8 mph 24.2 mph 0.00 in Rain Light Rain
8:52 AM 46.9 °F - 44.1 °F 90% 29.98 in 10.0 mi WNW 12.7 mph 20.7 mph 0.00 in   Overcast
9:52 AM 46.9 °F - 43.0 °F 86% 29.99 in 10.0 mi WNW 15.0 mph 25.3 mph 0.00 in   Overcast
10:52 AM 45.0 °F 39.3 °F 41.0 °F 86% 30.02 in 10.0 mi West 11.5 mph 24.2 mph 0.00 in Rain Light Rain
11:14 AM 45.0 °F 38.2 °F 41.0 °F 86% 30.02 in 7.0 mi West 15.0 mph 21.9 mph 0.00 in   Overcast
11:21 AM 45.0 °F 38.5 °F 41.0 °F 86% 30.03 in 7.0 mi West 13.8 mph 21.9 mph 0.00 in   Overcast
11:32 AM 44.1 °F 37.4 °F 41.0 °F 89% 30.03 in 2.5 mi West 13.8 mph - 0.00 in Rain Light Rain
11:39 AM 44.1 °F 36.5 °F 41.0 °F 89% 30.03 in 3.0 mi West 17.3 mph 27.6 mph 0.01 in Rain Light Rain
11:52 AM 44.1 °F 37.4 °F 41.0 °F 89% 30.04 in 6.0 mi West 13.8 mph 23.0 mph 0.01 in   Overcast
12:05 PM 43.0 °F 36.4 °F 39.9 °F 89% 30.04 in 4.0 mi WNW 12.7 mph 24.2 mph 0.00 in Rain Light Rain
12:09 PM 43.0 °F 36.8 °F 41.0 °F 93% 30.04 in 2.5 mi West 11.5 mph 24.2 mph 0.01 in Rain Rain
12:16 PM 43.0 °F 34.8 °F 39.9 °F 89% 30.05 in 1.8 mi WNW 18.4 mph 26.5 mph 0.02 in Rain Light Rain
12:19 PM 42.1 °F 34.9 °F 39.0 °F 89% 30.05 in 2.0 mi WNW 13.8 mph 26.5 mph 0.02 in Rain Light Rain
12:28 PM 42.1 °F 34.5 °F 39.0 °F 89% 30.05 in 4.0 mi WNW 15.0 mph 25.3 mph 0.02 in Rain Light Rain
12:52 PM 43.0 °F 37.2 °F 39.0 °F 86% 30.05 in 10.0 mi WNW 10.4 mph 21.9 mph 0.02 in   Overcast
1:17 PM 43.0 °F 36.4 °F 39.0 °F 86% 30.05 in 7.0 mi WNW 12.7 mph 20.7 mph 0.00 in Rain Light Rain
1:41 PM 43.0 °F 37.2 °F 37.9 °F 82% 30.05 in 10.0 mi WNW 10.4 mph 23.0 mph 0.00 in Rain Light Rain
1:52 PM 43.0 °F 36.0 °F 37.9 °F 82% 30.05 in 10.0 mi West 13.8 mph - 0.00 in   Overcast
2:52 PM 45.0 °F 39.7 °F 37.0 °F 74% 30.05 in 10.0 mi WNW 10.4 mph 25.3 mph 0.00 in   Overcast
3:52 PM 46.0 °F 39.9 °F 35.1 °F 66% 30.06 in 10.0 mi West 13.8 mph 23.0 mph N/A   Overcast
4:02 PM 46.0 °F 40.2 °F 34.0 °F 63% 30.06 in 10.0 mi West 12.7 mph 25.3 mph N/A   Overcast
4:52 PM 45.0 °F 37.9 °F 32.0 °F 60% 30.09 in 10.0 mi West 16.1 mph 25.3 mph 0.00 in Rain Light Rain
5:52 PM 44.1 °F 39.0 °F 30.9 °F 60% 30.12 in 10.0 mi WNW 9.2 mph - 0.00 in   Partly Cloudy
6:52 PM 42.1 °F 36.1 °F 30.9 °F 65% 30.13 in 10.0 mi West 10.4 mph - N/A   Clear
7:52 PM 37.9 °F 32.7 °F 30.9 °F 76% 30.14 in 10.0 mi West 6.9 mph - N/A   Partly Cloudy
8:52 PM 39.0 °F 34.8 °F 33.1 °F 79% 30.16 in 10.0 mi West 5.8 mph - N/A   Overcast
9:52 PM 37.0 °F 32.4 °F 32.0 °F 82% 30.17 in 10.0 mi WSW 5.8 mph - N/A   Clear
10:52 PM 34.0 °F 28.0 °F 30.9 °F 89% 30.18 in 10.0 mi West 6.9 mph - N/A   Clear
11:52 PM 35.1 °F 31.0 °F 30.9 °F 85% 30.18 in 10.0 mi SW 4.6 mph - N/A   Clear